QPF
0.02 0.02 0.03 0.03 0.02 0.02 0.03 0.04 0.03 0.03 0.03 0.01 0.01 0.01 0.00 0.00 0.01 0.02 0.01 0.01 0.02 0.03 0.03 0.03 0.02 0.01 0.01 0.01 0.01 0.02 0.03 0.04 0.04 0.03 0.04 0.03 0.05 0.05 0.04 0.03 0.05 0.07 0.06 0.05 0.05 0.06 0.08 0.07 0.07
0.02 0.04 0.03 0.04 0.03 0.02 0.03 0.05 0.04 0.04 0.03 0.01 0.01 0.01 0.01 0.01 0.01 0.02 0.02 0.01 0.03 0.03 0.02 0.01 0.02 0.01 0.01 0.01 0.01 0.02 0.03 0.03 0.04 0.04 0.03 0.03 0.04 0.04 0.03 0.03 0.05 0.07 0.07 0.07 0.07 0.08 0.10 0.10 0.09
0.03 0.05 0.06 0.05 0.04 0.03 0.03 0.05 0.03 0.04 0.04 0.03 0.02 0.01 0.01 0.02 0.02 0.02 0.02 0.02 0.02 0.02 0.02 0.02 0.03 0.02 0.01 0.01 0.01 0.01 0.02 0.02 0.03 0.02 0.03 0.04 0.04 0.04 0.04 0.04 0.06 0.08 0.07 0.06 0.07 0.09 0.11 0.11 0.08
0.04 0.06 0.05 0.06 0.04 0.04 0.04 0.05 0.03 0.04 0.06 0.04 0.02 0.02 0.01 0.01 0.02 0.01 0.01 0.01 0.02 0.02 0.02 0.03 0.04 0.03 0.01 0.01 0.01 0.01 0.02 0.02 0.02 0.03 0.03 0.03 0.05 0.05 0.05 0.05 0.07 0.08 0.10 0.09 0.09 0.11 0.13 0.11 0.07
0.04 0.05 0.05 0.06 0.05 0.05 0.04 0.03 0.03 0.06 0.05 0.03 0.02 0.01 0.01 0.01 0.01 0.01 0.01 0.01 0.02 0.02 0.02 0.01 0.03 0.04 0.04 0.02 0.02 0.02 0.01 0.02 0.03 0.04 0.04 0.04 0.04 0.05 0.06 0.07 0.08 0.10 0.13 0.13 0.12 0.13 0.13 0.09 0.08
0.08 0.10 0.07 0.06 0.06 0.05 0.04 0.03 0.03 0.02 0.01 0.02 0.02 0.01 0.01 0.02 0.02 0.01 0.01 0.01 0.01 0.01 0.01 0.02 0.03 0.02 0.02 0.02 0.02 0.01 0.01 0.01 0.02 0.03 0.03 0.04 0.07 0.09 0.10 0.12 0.14 0.15 0.15 0.17 0.18 0.16 0.12 0.08 0.08
0.08 0.09 0.06 0.05 0.05 0.03 0.02 0.02 0.02 0.02 0.01 0.01 0.01 0.01 0.02 0.02 0.02 0.02 0.01 0.01 0.01 0.00 0.01 0.03 0.03 0.02 0.02 0.01 0.02 0.01 0.02 0.02 0.02 0.02 0.03 0.05 0.06 0.10 0.14 0.15 0.15 0.17 0.17 0.18 0.21 0.17 0.11 0.10 0.08
0.05 0.06 0.06 0.06 0.05 0.03 0.02 0.02 0.02 0.02 0.02 0.02 0.01 0.01 0.02 0.02 0.02 0.02 0.02 0.01 0.01 0.01 0.01 0.02 0.03 0.02 0.01 0.02 0.02 0.01 0.01 0.02 0.02 0.03 0.04 0.05 0.06 0.08 0.13 0.12 0.16 0.20 0.18 0.19 0.21 0.16 0.14 0.09 0.08
0.03 0.05 0.07 0.06 0.03 0.03 0.03 0.03 0.02 0.02 0.02 0.02 0.01 0.01 0.02 0.02 0.01 0.01 0.02 0.01 0.01 0.01 0.01 0.01 0.03 0.02 0.00 0.01 0.02 0.02 0.02 0.02 0.02 0.03 0.04 0.05 0.05 0.07 0.09 0.10 0.12 0.13 0.15 0.17 0.16 0.16 0.15 0.10 0.08
0.01 0.02 0.04 0.04 0.02 0.02 0.03 0.03 0.02 0.02 0.02 0.01 0.01 0.01 0.02 0.01 0.01 0.01 0.01 0.01 0.01 0.01 0.01 0.01 0.03 0.03 0.01 0.01 0.01 0.02 0.02 0.02 0.02 0.02 0.03 0.04 0.06 0.06 0.05 0.07 0.09 0.10 0.11 0.11 0.11 0.12 0.12 0.08 0.05
0.01 0.02 0.02 0.03 0.02 0.02 0.04 0.03 0.01 0.01 0.01 0.00 0.01 0.01 0.01 0.01 0.01 0.00 0.01 0.01 0.01 0.00 0.00 0.01 0.02 0.03 0.02 0.01 0.01 0.02 0.02 0.02 0.02 0.02 0.02 0.03 0.05 0.05 0.05 0.05 0.07 0.08 0.09 0.08 0.08 0.10 0.09 0.07 0.05
0.03 0.02 0.01 0.03 0.03 0.03 0.04 0.04 0.01 0.01 0.01 0.00 0.00 0.01 0.02 0.01 0.01 0.01 0.01 0.01 0.02 0.01 0.01 0.03 0.03 0.03 0.03 0.02 0.01 0.01 0.01 0.02 0.02 0.01 0.01 0.02 0.04 0.05 0.06 0.05 0.07 0.09 0.10 0.10 0.09 0.09 0.07 0.06 0.05
0.06 0.04 0.02 0.01 0.02 0.03 0.03 0.04 0.02 0.01 0.00 0.00 0.00 0.01 0.02 0.01 0.01 0.01 0.01 0.02 0.05 0.06 0.06 0.06 0.04 0.02 0.02 0.02 0.01 0.01 0.01 0.01 0.01 0.01 0.01 0.01 0.03 0.04 0.06 0.07 0.05 0.06 0.12 0.15 0.13 0.11 0.09 0.07 0.07
0.03 0.03 0.02 0.01 0.01 0.03 0.03 0.03 0.02 0.01 0.00 0.00 0.00 0.01 0.03 0.02 0.01 0.01 0.01 0.01 0.03 0.08 0.08 0.08 0.05 0.03 0.02 0.02 0.02 0.01 0.02 0.02 0.01 0.01 0.02 0.02 0.02 0.03 0.03 0.04 0.03 0.02 0.05 0.10 0.11 0.10 0.09 0.09 0.08
0.01 0.01 0.02 0.01 0.02 0.02 0.03 0.04 0.03 0.01 0.00 0.00 0.01 0.01 0.01 0.01 0.01 0.00 0.01 0.01 0.01 0.04 0.09 0.08 0.06 0.05 0.04 0.04 0.03 0.03 0.04 0.03 0.03 0.02 0.02 0.02 0.02 0.02 0.02 0.02 0.01 0.01 0.03 0.05 0.09 0.11 0.10 0.10 0.10
0.01 0.01 0.01 0.01 0.02 0.03 0.03 0.04 0.03 0.01 0.01 0.01 0.01 0.01 0.00 0.01 0.01 0.01 0.01 0.01 0.01 0.02 0.05 0.07 0.05 0.05 0.05 0.05 0.05 0.05 0.05 0.05 0.05 0.04 0.03 0.02 0.02 0.01 0.01 0.01 0.01 0.02 0.03 0.04 0.08 0.11 0.11 0.10 0.10
0.01 0.01 0.01 0.01 0.02 0.02 0.02 0.02 0.02 0.01 0.01 0.01 0.01 0.01 0.01 0.01 0.01 0.01 0.01 0.02 0.02 0.02 0.03 0.03 0.03 0.04 0.04 0.04 0.04 0.04 0.05 0.06 0.07 0.09 0.07 0.05 0.03 0.02 0.02 0.02 0.03 0.04 0.05 0.06 0.06 0.08 0.10 0.11 0.11
0.00 0.00 0.00 0.01 0.01 0.01 0.01 0.01 0.02 0.01 0.01 0.01 0.01 0.01 0.01 0.01 0.01 0.01 0.02 0.02 0.03 0.06 0.04 0.02 0.02 0.01 0.02 0.02 0.01 0.01 0.01 0.02 0.02 0.04 0.05 0.07 0.06 0.04 0.05 0.07 0.05 0.05 0.04 0.05 0.05 0.07 0.09 0.11 0.12
0.00 0.01 0.01 0.01 0.01 0.01 0.02 0.01 0.02 0.02 0.01 0.01 0.01 0.00 0.01 0.01 0.01 0.02 0.02 0.03 0.05 0.10 0.08 0.05 0.04 0.03 0.03 0.03 0.03 0.01 0.01 0.01 0.01 0.02 0.03 0.05 0.07 0.07 0.08 0.09 0.05 0.04 0.03 0.03 0.03 0.04 0.06 0.07 0.07
0.00 0.01 0.01 0.01 0.01 0.01 0.01 0.02 0.02 0.02 0.02 0.02 0.01 0.01 0.01 0.02 0.02 0.02 0.03 0.03 0.05 0.05 0.06 0.05 0.04 0.05 0.04 0.03 0.02 0.02 0.01 0.01 0.01 0.02 0.05 0.05 0.07 0.08 0.07 0.07 0.05 0.03 0.02 0.03 0.02 0.02 0.02 0.02 0.03
0.01 0.00 0.00 0.00 0.01 0.01 0.01 0.02 0.02 0.02 0.03 0.04 0.04 0.03 0.02 0.04 0.04 0.03 0.03 0.03 0.05 0.07 0.05 0.04 0.03 0.05 0.04 0.04 0.03 0.02 0.02 0.02 0.01 0.02 0.03 0.04 0.04 0.05 0.04 0.05 0.05 0.04 0.04 0.03 0.01 0.01 0.01 0.01 0.01
0.02 0.01 0.00 0.00 0.00 0.00 0.01 0.01 0.02 0.02 0.02 0.03 0.05 0.05 0.03 0.04 0.06 0.04 0.05 0.07 0.06 0.08 0.06 0.04 0.05 0.06 0.04 0.05 0.06 0.04 0.03 0.02 0.02 0.01 0.02 0.03 0.03 0.03 0.03 0.04 0.04 0.04 0.03 0.03 0.02 0.01 0.01 0.01 0.02
0.01 0.03 0.01 0.00 0.00 0.01 0.01 0.00 0.01 0.02 0.03 0.03 0.03 0.03 0.03 0.04 0.06 0.08 0.08 0.05 0.03 0.06 0.05 0.04 0.06 0.07 0.08 0.09 0.09 0.10 0.09 0.06 0.04 0.02 0.02 0.02 0.02 0.02 0.02 0.03 0.04 0.04 0.02 0.03 0.03 0.02 0.01 0.01 0.02
0.01 0.04 0.03 0.00 0.00 0.01 0.01 0.00 0.01 0.02 0.02 0.02 0.02 0.02 0.03 0.03 0.06 0.07 0.06 0.04 0.03 0.03 0.02 0.02 0.03 0.06 0.06 0.07 0.08 0.10 0.12 0.12 0.07 0.04 0.04 0.03 0.02 0.02 0.02 0.03 0.03 0.03 0.02 0.02 0.02 0.02 0.02 0.02 0.02
0.00 0.01 0.02 0.02 0.02 0.01 0.01 0.01 0.01 0.01 0.01 0.02 0.02 0.02 0.02 0.02 0.03 0.03 0.04 0.04 0.04 0.03 0.02 0.02 0.01 0.02 0.04 0.04 0.06 0.11 0.13 0.11 0.08 0.06 0.06 0.04 0.03 0.02 0.02 0.02 0.02 0.02 0.03 0.02 0.02 0.02 0.02 0.02 0.03
0.00 0.01 0.01 0.01 0.01 0.00 0.00 0.01 0.01 0.01 0.01 0.01 0.01 0.01 0.02 0.02 0.02 0.02 0.02 0.03 0.03 0.03 0.02 0.02 0.02 0.02 0.04 0.06 0.04 0.06 0.10 0.11 0.08 0.06 0.06 0.05 0.04 0.03 0.02 0.01 0.01 0.02 0.02 0.02 0.03 0.03 0.02 0.02 0.03
0.00 0.00 0.00 0.00 0.00 0.01 0.01 0.01 0.01 0.01 0.01 0.01 0.01 0.01 0.01 0.02 0.02 0.01 0.02 0.03 0.02 0.02 0.02 0.02 0.03 0.03 0.06 0.10 0.06 0.06 0.10 0.10 0.07 0.05 0.05 0.05 0.05 0.04 0.03 0.02 0.02 0.03 0.03 0.04 0.04 0.03 0.03 0.03 0.04
0.00 0.00 0.00 0.00 0.00 0.01 0.01 0.01 0.01 0.01 0.01 0.01 0.01 0.00 0.01 0.01 0.01 0.01 0.01 0.02 0.02 0.02 0.02 0.03 0.04 0.04 0.04 0.06 0.07 0.09 0.06 0.05 0.06 0.06 0.06 0.05 0.04 0.04 0.04 0.03 0.03 0.04 0.05 0.05 0.06 0.06 0.06 0.06 0.05
0.00 0.00 0.00 0.00 0.01 0.01 0.00 0.00 0.00 0.01 0.00 0.00 0.00 0.00 0.00 0.01 0.01 0.01 0.00 0.01 0.03 0.05 0.06 0.05 0.04 0.04 0.05 0.06 0.08 0.08 0.07 0.07 0.07 0.06 0.06 0.05 0.05 0.05 0.05 0.04 0.05 0.07 0.07 0.07 0.07 0.06 0.06 0.05 0.04
0.00 0.00 0.00 0.00 0.00 0.00 0.00 0.00 0.00 0.00 0.00 0.00 0.00 0.01 0.00 0.00 0.01 0.01 0.01 0.01 0.03 0.06 0.06 0.06 0.05 0.05 0.06 0.06 0.06 0.09 0.09 0.09 0.08 0.07 0.06 0.05 0.05 0.05 0.06 0.07 0.07 0.07 0.07 0.08 0.07 0.05 0.04 0.04 0.03
MSLP
1006.83 1007.70 1008.64 1009.53 1010.23 1010.68 1010.84 1010.79 1010.60 1010.42 1010.35 1010.46 1010.77 1011.23 1011.74 1012.20 1012.49 1012.57 1012.42 1012.10 1011.71 1011.34 1011.09 1011.00 1011.09 1011.30 1011.58 1011.84 1012.04 1012.13 1012.13 1012.08 1012.03 1012.04 1012.12 1012.30 1012.54 1012.80 1013.05 1013.24 1013.36 1013.41 1013.42 1013.40 1013.39 1013.41 1013.45 1013.51 1013.58
1007.09 1008.10 1009.14 1010.06 1010.73 1011.08 1011.13 1010.92 1010.59 1010.27 1010.10 1010.13 1010.39 1010.82 1011.32 1011.78 1012.10 1012.21 1012.11 1011.86 1011.53 1011.24 1011.06 1011.03 1011.17 1011.42 1011.73 1012.01 1012.23 1012.35 1012.38 1012.37 1012.35 1012.37 1012.46 1012.62 1012.84 1013.07 1013.28 1013.44 1013.55 1013.60 1013.63 1013.64 1013.66 1013.69 1013.74 1013.78 1013.82
1007.53 1008.66 1009.75 1010.66 1011.27 1011.53 1011.44 1011.11 1010.65 1010.23 1009.97 1009.94 1010.15 1010.54 1011.03 1011.48 1011.81 1011.95 1011.90 1011.70 1011.45 1011.22 1011.11 1011.13 1011.31 1011.59 1011.91 1012.21 1012.44 1012.58 1012.64 1012.65 1012.65 1012.69 1012.77 1012.92 1013.09 1013.28 1013.45 1013.59 1013.68 1013.74 1013.79 1013.83 1013.89 1013.95 1014.00 1014.04 1014.05
1008.12 1009.31 1010.42 1011.29 1011.82 1011.97 1011.77 1011.33 1010.79 1010.30 1009.99 1009.92 1010.10 1010.47 1010.93 1011.37 1011.70 1011.85 1011.84 1011.70 1011.50 1011.34 1011.28 1011.34 1011.54 1011.83 1012.14 1012.43 1012.66 1012.81 1012.88 1012.91 1012.93 1012.97 1013.06 1013.18 1013.32 1013.47 1013.60 1013.70 1013.79 1013.86 1013.93 1014.01 1014.10 1014.19 1014.26 1014.29 1014.27
1008.79 1009.99 1011.06 1011.85 1012.28 1012.34 1012.06 1011.56 1010.99 1010.48 1010.17 1010.10 1010.26 1010.62 1011.05 1011.47 1011.78 1011.94 1011.95 1011.85 1011.71 1011.60 1011.58 1011.67 1011.86 1012.13 1012.42 1012.68 1012.88 1013.01 1013.09 1013.13 1013.17 1013.23 1013.31 1013.42 1013.54 1013.65 1013.75 1013.83 1013.90 1013.98 1014.07 1014.18 1014.30 1014.41 1014.50 1014.52 1014.49
1009.44 1010.59 1011.57 1012.26 1012.60 1012.57 1012.25 1011.75 1011.19 1010.73 1010.46 1010.42 1010.60 1010.94 1011.36 1011.75 1012.03 1012.18 1012.20 1012.14 1012.04 1011.96 1011.97 1012.07 1012.25 1012.47 1012.71 1012.92 1013.08 1013.18 1013.25 1013.31 1013.36 1013.44 1013.54 1013.65 1013.76 1013.86 1013.93 1013.99 1014.05 1014.12 1014.23 1014.35 1014.49 1014.61 1014.70 1014.72 1014.67
1009.98 1011.03 1011.89 1012.46 1012.70 1012.62 1012.30 1011.84 1011.36 1010.99 1010.81 1010.83 1011.05 1011.39 1011.78 1012.13 1012.39 1012.52 1012.54 1012.49 1012.42 1012.38 1012.40 1012.49 1012.64 1012.82 1012.99 1013.14 1013.24 1013.32 1013.38 1013.44 1013.53 1013.64 1013.76 1013.90 1014.01 1014.09 1014.15 1014.19 1014.23 1014.29 1014.38 1014.50 1014.64 1014.76 1014.84 1014.86 1014.80
1010.34 1011.26 1011.98 1012.43 1012.59 1012.49 1012.20 1011.82 1011.46 1011.22 1011.15 1011.26 1011.52 1011.87 1012.23 1012.55 1012.76 1012.87 1012.88 1012.85 1012.80 1012.78 1012.81 1012.89 1013.01 1013.14 1013.25 1013.33 1013.38 1013.43 1013.48 1013.56 1013.67 1013.82 1013.99 1014.15 1014.28 1014.37 1014.41 1014.42 1014.43 1014.46 1014.52 1014.62 1014.74 1014.84 1014.91 1014.92 1014.86
1010.52 1011.30 1011.89 1012.22 1012.32 1012.21 1011.98 1011.71 1011.49 1011.39 1011.44 1011.64 1011.95 1012.30 1012.63 1012.90 1013.08 1013.15 1013.16 1013.13 1013.11 1013.11 1013.16 1013.23 1013.33 1013.41 1013.47 1013.50 1013.51 1013.53 1013.58 1013.67 1013.82 1014.01 1014.22 1014.41 1014.56 1014.65 1014.69 1014.67 1014.65 1014.63 1014.65 1014.70 1014.78 1014.86 1014.91 1014.91 1014.85
1010.56 1011.22 1011.68 1011.93 1011.98 1011.88 1011.72 1011.56 1011.48 1011.51 1011.68 1011.95 1012.28 1012.63 1012.93 1013.15 1013.28 1013.33 1013.33 1013.31 1013.31 1013.35 1013.41 1013.50 1013.58 1013.64 1013.66 1013.66 1013.64 1013.65 1013.70 1013.81 1013.98 1014.21 1014.45 1014.67 1014.84 1014.93 1014.95 1014.91 1014.85 1014.78 1014.75 1014.75 1014.78 1014.83 1014.86 1014.85 1014.80
1010.56 1011.12 1011.48 1011.65 1011.67 1011.60 1011.50 1011.44 1011.47 1011.61 1011.85 1012.17 1012.51 1012.83 1013.09 1013.27 1013.36 1013.38 1013.38 1013.38 1013.41 1013.48 1013.57 1013.68 1013.77 1013.83 1013.84 1013.82 1013.80 1013.80 1013.85 1013.97 1014.16 1014.40 1014.66 1014.90 1015.08 1015.17 1015.18 1015.12 1015.02 1014.92 1014.83 1014.78 1014.77 1014.77 1014.78 1014.77 1014.72
1010.60 1011.09 1011.38 1011.50 1011.50 1011.45 1011.41 1011.42 1011.52 1011.72 1012.00 1012.32 1012.65 1012.93 1013.14 1013.27 1013.32 1013.33 1013.33 1013.36 1013.42 1013.52 1013.65 1013.79 1013.91 1013.98 1014.01 1014.00 1013.98 1013.98 1014.03 1014.15 1014.34 1014.58 1014.84 1015.08 1015.26 1015.35 1015.36 1015.28 1015.16 1015.03 1014.91 1014.82 1014.77 1014.74 1014.73 1014.71 1014.66
1010.77 1011.20 1011.44 1011.53 1011.53 1011.49 1011.47 1011.52 1011.65 1011.86 1012.13 1012.43 1012.71 1012.93 1013.09 1013.18 1013.21 1013.22 1013.23 1013.27 1013.37 1013.50 1013.67 1013.85 1013.99 1014.10 1014.15 1014.17 1014.16 1014.17 1014.22 1014.33 1014.50 1014.72 1014.96 1015.18 1015.34 1015.44 1015.45 1015.38 1015.26 1015.12 1014.99 1014.88 1014.80 1014.75 1014.72 1014.69 1014.64
1011.09 1011.48 1011.69 1011.76 1011.75 1011.72 1011.72 1011.77 1011.88 1012.06 1012.28 1012.52 1012.72 1012.89 1013.00 1013.05 1013.07 1013.08 1013.11 1013.17 1013.29 1013.45 1013.65 1013.85 1014.03 1014.17 1014.26 1014.31 1014.33 1014.35 1014.40 1014.49 1014.62 1014.80 1015.00 1015.18 1015.33 1015.42 1015.45 1015.41 1015.32 1015.20 1015.08 1014.97 1014.89 1014.83 1014.78 1014.73 1014.68
1011.52 1011.88 1012.07 1012.13 1012.13 1012.11 1012.10 1012.12 1012.20 1012.31 1012.45 1012.60 1012.73 1012.83 1012.89 1012.93 1012.95 1012.97 1013.01 1013.10 1013.22 1013.39 1013.60 1013.81 1014.01 1014.19 1014.32 1014.41 1014.46 1014.50 1014.55 1014.61 1014.70 1014.82 1014.96 1015.10 1015.23 1015.32 1015.37 1015.37 1015.32 1015.25 1015.17 1015.09 1015.01 1014.95 1014.90 1014.84 1014.78
1011.98 1012.31 1012.49 1012.57 1012.59 1012.58 1012.56 1012.55 1012.57 1012.59 1012.64 1012.68 1012.73 1012.77 1012.81 1012.84 1012.87 1012.91 1012.97 1013.06 1013.18 1013.34 1013.53 1013.73 1013.94 1014.14 1014.31 1014.44 1014.54 1014.60 1014.65 1014.69 1014.74 1014.80 1014.88 1014.97 1015.07 1015.16 1015.23 1015.28 1015.29 1015.28 1015.25 1015.20 1015.15 1015.10 1015.04 1014.99 1014.92
1012.39 1012.69 1012.88 1012.99 1013.05 1013.07 1013.06 1013.02 1012.96 1012.89 1012.82 1012.77 1012.73 1012.72 1012.74 1012.78 1012.83 1012.90 1012.98 1013.07 1013.17 1013.30 1013.45 1013.62 1013.82 1014.03 1014.24 1014.42 1014.56 1014.66 1014.72 1014.75 1014.75 1014.75 1014.77 1014.81 1014.87 1014.96 1015.05 1015.15 1015.22 1015.28 1015.30 1015.30 1015.28 1015.24 1015.20 1015.15 1015.09
1012.65 1012.93 1013.16 1013.34 1013.47 1013.55 1013.56 1013.49 1013.37 1013.19 1013.01 1012.84 1012.72 1012.67 1012.67 1012.73 1012.82 1012.93 1013.03 1013.11 1013.19 1013.26 1013.36 1013.50 1013.67 1013.88 1014.11 1014.34 1014.54 1014.69 1014.77 1014.79 1014.77 1014.72 1014.68 1014.66 1014.69 1014.76 1014.87 1015.01 1015.14 1015.25 1015.33 1015.38 1015.39 1015.37 1015.34 1015.31 1015.27
1012.72 1013.03 1013.33 1013.62 1013.86 1014.02 1014.07 1013.99 1013.78 1013.50 1013.19 1012.91 1012.69 1012.59 1012.58 1012.67 1012.80 1012.95 1013.08 1013.16 1013.21 1013.24 1013.28 1013.36 1013.50 1013.71 1013.97 1014.24 1014.50 1014.70 1014.82 1014.85 1014.81 1014.72 1014.63 1014.56 1014.54 1014.60 1014.71 1014.87 1015.05 1015.21 1015.34 1015.42 1015.45 1015.46 1015.45 1015.44 1015.44
1012.62 1013.00 1013.43 1013.87 1014.26 1014.53 1014.62 1014.52 1014.24 1013.83 1013.37 1012.95 1012.63 1012.46 1012.44 1012.55 1012.73 1012.93 1013.10 1013.19 1013.22 1013.21 1013.20 1013.22 1013.33 1013.53 1013.81 1014.13 1014.44 1014.70 1014.87 1014.93 1014.88 1014.76 1014.62 1014.51 1014.45 1014.47 1014.58 1014.75 1014.96 1015.15 1015.31 1015.42 1015.48 1015.51 1015.52 1015.53 1015.57
1012.42 1012.92 1013.53 1014.16 1014.72 1015.11 1015.25 1015.12 1014.74 1014.18 1013.55 1012.97 1012.52 1012.27 1012.22 1012.35 1012.58 1012.83 1013.04 1013.16 1013.19 1013.16 1013.10 1013.09 1013.16 1013.35 1013.65 1014.01 1014.38 1014.70 1014.91 1015.00 1014.95 1014.82 1014.64 1014.48 1014.38 1014.38 1014.47 1014.65 1014.86 1015.08 1015.26 1015.39 1015.47 1015.51 1015.53 1015.57 1015.64
1012.22 1012.89 1013.72 1014.57 1015.31 1015.81 1015.99 1015.81 1015.30 1014.56 1013.73 1012.96 1012.36 1012.00 1011.91 1012.04 1012.31 1012.62 1012.89 1013.05 1013.10 1013.05 1012.98 1012.93 1012.99 1013.17 1013.48 1013.87 1014.28 1014.65 1014.91 1015.02 1014.99 1014.85 1014.64 1014.45 1014.32 1014.28 1014.36 1014.52 1014.75 1014.97 1015.17 1015.31 1015.40 1015.45 1015.48 1015.54 1015.63
1012.12 1013.00 1014.06 1015.12 1016.03 1016.63 1016.82 1016.55 1015.89 1014.95 1013.90 1012.91 1012.14 1011.66 1011.51 1011.63 1011.93 1012.30 1012.63 1012.84 1012.92 1012.89 1012.81 1012.75 1012.79 1012.96 1013.28 1013.69 1014.13 1014.54 1014.83 1014.97 1014.95 1014.80 1014.58 1014.36 1014.20 1014.14 1014.20 1014.36 1014.58 1014.82 1015.03 1015.18 1015.27 1015.32 1015.35 1015.41 1015.52
1012.18 1013.28 1014.56 1015.82 1016.86 1017.51 1017.67 1017.29 1016.46 1015.30 1014.02 1012.82 1011.87 1011.27 1011.04 1011.14 1011.47 1011.88 1012.27 1012.54 1012.67 1012.66 1012.59 1012.52 1012.55 1012.72 1013.03 1013.45 1013.91 1014.33 1014.64 1014.80 1014.79 1014.64 1014.41 1014.17 1014.00 1013.92 1013.97 1014.13 1014.35 1014.59 1014.81 1014.96 1015.05 1015.09 1015.12 1015.17 1015.28
1012.41 1013.71 1015.17 1016.57 1017.69 1018.35 1018.44 1017.93 1016.92 1015.55 1014.06 1012.67 1011.56 1010.84 1010.54 1010.62 1010.96 1011.41 1011.85 1012.17 1012.34 1012.37 1012.31 1012.25 1012.28 1012.43 1012.73 1013.14 1013.60 1014.02 1014.34 1014.51 1014.50 1014.35 1014.12 1013.88 1013.70 1013.62 1013.66 1013.82 1014.04 1014.28 1014.50 1014.65 1014.74 1014.77 1014.78 1014.82 1014.91
1012.77 1014.22 1015.79 1017.25 1018.39 1019.01 1019.00 1018.35 1017.18 1015.64 1013.98 1012.44 1011.21 1010.41 1010.06 1010.12 1010.46 1010.94 1011.41 1011.78 1011.98 1012.04 1012.00 1011.94 1011.96 1012.11 1012.39 1012.78 1013.23 1013.64 1013.96 1014.12 1014.11 1013.97 1013.75 1013.51 1013.32 1013.24 1013.28 1013.43 1013.65 1013.89 1014.10 1014.25 1014.32 1014.34 1014.34 1014.35 1014.43
1013.18 1014.69 1016.29 1017.74 1018.82 1019.34 1019.22 1018.45 1017.15 1015.50 1013.75 1012.14 1010.85 1010.01 1009.64 1009.68 1010.03 1010.52 1011.01 1011.40 1011.62 1011.70 1011.67 1011.62 1011.64 1011.77 1012.04 1012.41 1012.83 1013.22 1013.52 1013.68 1013.68 1013.54 1013.32 1013.09 1012.91 1012.83 1012.87 1013.01 1013.22 1013.45 1013.64 1013.78 1013.84 1013.84 1013.82 1013.82 1013.88
1013.52 1015.02 1016.55 1017.91 1018.86 1019.26 1019.02 1018.16 1016.79 1015.11 1013.35 1011.75 1010.48 1009.66 1009.30 1009.35 1009.70 1010.19 1010.68 1011.07 1011.30 1011.38 1011.36 1011.32 1011.34 1011.46 1011.70 1012.05 1012.45 1012.82 1013.10 1013.26 1013.25 1013.13 1012.92 1012.70 1012.53 1012.45 1012.48 1012.61 1012.79 1013.00 1013.18 1013.29 1013.34 1013.32 1013.29 1013.28 1013.32
1013.71 1015.10 1016.49 1017.67 1018.45 1018.70 1018.35 1017.44 1016.08 1014.44 1012.77 1011.27 1010.10 1009.36 1009.06 1009.14 1009.49 1009.97 1010.44 1010.81 1011.03 1011.11 1011.10 1011.06 1011.08 1011.20 1011.43 1011.76 1012.13 1012.49 1012.76 1012.90 1012.90 1012.79 1012.60 1012.40 1012.24 1012.15 1012.17 1012.28 1012.44 1012.61 1012.76 1012.85 1012.87 1012.85 1012.81 1012.80 1012.85
1013.70 1014.91 1016.08 1017.04 1017.61 1017.71 1017.27 1016.35 1015.06 1013.55 1012.05 1010.72 1009.72 1009.11 1008.89 1009.01 1009.37 1009.82 1010.26 1010.60 1010.80 1010.88 1010.87 1010.85 1010.88 1011.01 1011.24 1011.55 1011.91 1012.24 1012.50 1012.64 1012.65 1012.55 1012.39 1012.20 1012.05 1011.97 1011.98 1012.06 1012.19 1012.33 1012.45 1012.51 1012.52 1012.50 1012.46 1012.46 1012.52
Thickness
5810 5808 5804 5793 5777 5762 5758 5772 5782 5784 5787 5796 5797 5792 5783 5777 5771 5768 5789 5797 5797 5795 5793 5791 5790 5789 5787 5787 5787 5787 5787 5787 5786 5786 5785 5785 5784 5782 5781 5780 5779 5779 5778 5777 5776 5775 5774 5773 5772
5812 5809 5800 5787 5766 5750 5760 5779 5783 5789 5796 5801 5799 5794 5787 5783 5789 5789 5793 5797 5798 5795 5793 5792 5790 5789 5787 5786 5787 5786 5786 5786 5785 5785 5784 5784 5783 5782 5781 5780 5779 5778 5777 5776 5776 5775 5773 5772 5771
5814 5810 5794 5779 5765 5757 5767 5785 5789 5798 5805 5802 5795 5795 5789 5786 5792 5793 5798 5800 5798 5795 5793 5792 5790 5788 5787 5787 5786 5786 5786 5785 5785 5784 5783 5783 5782 5781 5780 5779 5778 5777 5776 5775 5775 5774 5773 5771 5770
5812 5801 5791 5775 5767 5777 5784 5792 5798 5797 5801 5803 5798 5789 5793 5799 5799 5800 5802 5801 5797 5795 5793 5792 5790 5789 5788 5787 5786 5785 5785 5785 5784 5783 5782 5782 5781 5780 5779 5778 5777 5776 5775 5774 5774 5773 5772 5771 5770
5810 5795 5779 5768 5775 5788 5797 5802 5803 5797 5797 5799 5797 5786 5787 5799 5804 5804 5802 5800 5797 5794 5793 5791 5790 5789 5788 5787 5786 5785 5785 5784 5784 5783 5782 5781 5781 5780 5779 5778 5776 5775 5774 5773 5773 5772 5771 5770 5769
5799 5790 5769 5764 5777 5793 5802 5807 5805 5799 5798 5800 5796 5787 5786 5799 5801 5801 5801 5799 5797 5794 5792 5791 5790 5789 5787 5786 5785 5785 5784 5783 5783 5782 5781 5780 5779 5779 5778 5777 5776 5775 5774 5773 5772 5771 5770 5769 5769
5794 5783 5772 5775 5780 5789 5802 5811 5805 5800 5798 5800 5802 5786 5788 5796 5801 5802 5800 5798 5796 5794 5792 5790 5789 5788 5787 5786 5785 5784 5783 5783 5782 5781 5780 5779 5779 5778 5777 5776 5775 5774 5774 5773 5772 5770 5770 5769 5768
5804 5787 5778 5779 5783 5790 5808 5812 5813 5806 5803 5812 5808 5789 5787 5797 5803 5802 5799 5797 5795 5793 5791 5790 5789 5788 5787 5786 5785 5784 5783 5782 5781 5780 5779 5779 5777 5777 5776 5776 5775 5774 5773 5772 5771 5771 5770 5769 5768
5810 5783 5774 5784 5789 5797 5811 5809 5813 5818 5811 5810 5811 5805 5804 5806 5804 5798 5795 5792 5791 5791 5790 5790 5788 5787 5786 5785 5784 5783 5783 5781 5780 5779 5778 5778 5777 5776 5776 5775 5774 5773 5773 5772 5771 5771 5770 5769 5768
5800 5779 5789 5805 5809 5808 5812 5811 5811 5809 5802 5802 5803 5806 5808 5805 5800 5795 5792 5789 5789 5789 5790 5790 5788 5787 5786 5785 5784 5783 5782 5781 5780 5778 5777 5776 5776 5775 5775 5774 5774 5773 5773 5772 5771 5770 5769 5768 5767
5803 5794 5807 5815 5820 5819 5813 5813 5816 5805 5796 5802 5802 5802 5804 5801 5797 5795 5793 5792 5792 5792 5791 5791 5789 5788 5787 5785 5784 5783 5781 5780 5779 5778 5777 5776 5776 5775 5774 5773 5773 5772 5772 5771 5770 5769 5768 5767 5767
5807 5811 5816 5819 5824 5821 5816 5815 5812 5809 5810 5818 5815 5811 5806 5800 5798 5797 5795 5794 5794 5793 5792 5792 5790 5788 5787 5786 5784 5783 5781 5780 5779 5778 5777 5776 5774 5774 5773 5772 5772 5771 5770 5769 5769 5768 5767 5766 5765
5810 5815 5822 5825 5825 5824 5821 5815 5813 5812 5820 5822 5817 5810 5805 5802 5801 5801 5800 5798 5796 5794 5793 5793 5791 5789 5787 5785 5784 5783 5781 5780 5779 5777 5776 5775 5773 5772 5771 5770 5770 5770 5769 5768 5768 5767 5766 5765 5764
5818 5819 5821 5824 5824 5826 5818 5814 5813 5812 5821 5817 5813 5808 5806 5804 5803 5801 5800 5798 5797 5796 5795 5795 5792 5790 5788 5785 5784 5783 5781 5780 5778 5777 5775 5774 5773 5771 5770 5769 5768 5768 5768 5767 5766 5766 5764 5763 5762
5823 5813 5814 5820 5822 5822 5818 5804 5808 5817 5818 5812 5810 5808 5807 5806 5805 5803 5803 5801 5799 5798 5797 5795 5794 5791 5788 5786 5784 5782 5781 5779 5777 5776 5774 5773 5772 5770 5769 5768 5767 5766 5766 5765 5764 5763 5762 5761 5759
5813 5801 5793 5810 5818 5819 5807 5787 5808 5818 5814 5807 5808 5808 5806 5806 5806 5806 5806 5804 5802 5799 5797 5796 5795 5791 5788 5786 5784 5782 5780 5778 5776 5775 5773 5772 5771 5769 5768 5766 5765 5765 5764 5763 5762 5760 5759 5757 5756
5791 5781 5786 5800 5815 5814 5803 5791 5808 5815 5811 5806 5806 5807 5806 5804 5805 5807 5807 5806 5804 5801 5798 5795 5794 5792 5789 5786 5784 5782 5780 5778 5776 5774 5773 5771 5769 5768 5766 5764 5763 5762 5762 5761 5760 5758 5756 5754 5752
5779 5782 5786 5790 5806 5807 5798 5796 5805 5811 5809 5806 5806 5805 5804 5803 5805 5808 5808 5807 5804 5802 5799 5796 5793 5791 5788 5786 5782 5780 5778 5776 5775 5774 5772 5770 5768 5766 5764 5762 5761 5760 5759 5757 5756 5754 5753 5751 5750
5796 5789 5784 5794 5809 5801 5795 5794 5800 5807 5805 5804 5803 5803 5803 5804 5808 5809 5808 5806 5803 5800 5797 5795 5793 5790 5787 5784 5780 5776 5774 5774 5773 5773 5771 5770 5768 5766 5763 5761 5759 5757 5755 5754 5753 5751 5749 5747 5747
5796 5786 5784 5794 5806 5800 5791 5791 5801 5804 5805 5806 5805 5804 5804 5804 5804 5805 5806 5805 5802 5800 5798 5796 5794 5791 5789 5787 5783 5779 5776 5774 5773 5771 5770 5768 5766 5764 5762 5758 5756 5755 5752 5751 5749 5748 5744 5743 5742
5791 5787 5787 5787 5795 5795 5789 5782 5791 5801 5807 5808 5807 5807 5806 5806 5804 5804 5804 5803 5802 5800 5800 5799 5795 5792 5789 5787 5782 5778 5774 5772 5769 5767 5766 5766 5764 5762 5759 5757 5755 5752 5750 5748 5746 5744 5741 5738 5737
5783 5799 5797 5790 5777 5767 5777 5758 5780 5790 5796 5801 5803 5804 5806 5807 5807 5806 5805 5804 5803 5803 5803 5800 5796 5792 5789 5786 5782 5777 5772 5767 5766 5764 5763 5763 5761 5759 5757 5755 5752 5750 5748 5746 5744 5742 5740 5737 5733
5795 5803 5795 5786 5773 5763 5767 5758 5769 5784 5787 5796 5803 5806 5807 5808 5808 5808 5809 5808 5807 5805 5802 5799 5796 5792 5789 5786 5783 5778 5773 5768 5765 5763 5760 5758 5757 5756 5754 5751 5749 5747 5745 5743 5741 5739 5737 5735 5731
5804 5793 5783 5769 5759 5746 5758 5754 5760 5775 5787 5797 5804 5807 5808 5808 5809 5809 5810 5808 5805 5804 5801 5798 5794 5790 5788 5784 5782 5777 5772 5767 5762 5759 5756 5754 5753 5751 5750 5748 5746 5743 5741 5739 5737 5735 5733 5731 5729
5793 5767 5745 5741 5731 5738 5757 5753 5761 5790 5799 5802 5804 5806 5809 5808 5807 5806 5805 5804 5802 5800 5799 5797 5793 5789 5786 5782 5779 5775 5771 5766 5762 5758 5755 5751 5749 5747 5745 5745 5742 5740 5738 5736 5734 5731 5729 5727 5724
5782 5770 5743 5730 5726 5735 5751 5749 5773 5798 5804 5807 5808 5807 5807 5806 5806 5805 5805 5803 5801 5799 5797 5795 5791 5787 5784 5781 5777 5774 5770 5767 5763 5759 5755 5751 5747 5744 5743 5741 5739 5736 5734 5732 5729 5726 5724 5722 5720
5777 5766 5768 5743 5736 5731 5739 5755 5777 5795 5798 5802 5803 5802 5802 5803 5804 5804 5803 5802 5799 5797 5795 5793 5788 5784 5782 5779 5775 5771 5768 5765 5761 5757 5753 5749 5745 5743 5740 5737 5734 5732 5729 5727 5724 5721 5719 5717 5715
5788 5771 5750 5737 5723 5722 5736 5746 5757 5779 5787 5793 5796 5796 5798 5799 5800 5801 5800 5799 5797 5795 5793 5790 5786 5782 5779 5776 5773 5769 5765 5762 5757 5753 5748 5745 5742 5739 5736 5733 5730 5727 5725 5722 5719 5716 5714 5712 5710
5773 5763 5750 5735 5736 5722 5720 5742 5781 5784 5789 5791 5794 5796 5796 5796 5796 5796 5797 5796 5794 5792 5789 5786 5783 5779 5775 5772 5769 5765 5761 5757 5753 5749 5745 5741 5738 5735 5731 5728 5725 5722 5719 5716 5713 5710 5708 5706 5703
5779 5767 5752 5741 5732 5726 5724 5745 5791 5790 5792 5792 5792 5794 5795 5795 5794 5793 5792 5790 5788 5785 5783 5780 5778 5774 5771 5768 5764 5760 5756 5752 5748 5744 5740 5736 5733 5730 5726 5723 5720 5718 5715 5712 5708 5705 5703 5700 5697